This demonstration page uses our WeatherBlox Daily Observations layout. Learn more.

Left ArrowRight Arrow

38.88101, -77.10428

Hourly Observations for July 24, 2020

Temp ( °F °C ) Dew Point ( °F °C ) Humidity (%) Winds ( mph kmh ) Pressure ( in mb ) Visibility ( mi km ) Precip ( " mm )
12:52 am 00:52 Cloudy with Light Rain 75 23.9 72 22.2 90 90 WNW 5 7 30.05 1018 10 16.0934 0.001 0.001
1:52 am 01:52 Cloudy with Light Rain 76 24.4 72 22.2 88 88 N 3 6 30.06 1018 10 16.0934 0.001 0.001
2:52 am 02:52 Cloudy 76 24.4 73 22.8 91 91 Calm 30.05 1018 10 16.0934 0.001 0.001
3:38 am 03:38 Cloudy 76 24.4 73 22.8 91 91 SSW 7 11 30.06 1018 10 16.0934 0 0
3:52 am 03:52 Cloudy 76 24.4 74 23.3 94 94 SSW 7 11 30.06 1018 10 16.0934 0 0
4:52 am 04:52 Cloudy with Light Rain 76 24.4 73 22.8 91 91 SW 5 7 30.07 1018 10 16.0934 0.001 0.001
5:52 am 05:52 Mostly Cloudy with Light Rain 76 24.4 74 23.3 94 94 SW 5 7 30.07 1018 7 11.26538 0.05 1.27
6:31 am 06:31 Cloudy with Light Rain 76 24.4 73 22.8 91 91 NW 5 7 30.09 1019 10 16.0934 0.01 0.254
6:38 am 06:38 Cloudy with Light Rain 76 24.4 73 22.8 91 91 NNW 7 11 30.09 1019 10 16.0934 0.01 0.254
6:41 am 06:41 Cloudy with Light Rain 76 24.4 73 22.8 91 91 NNW 9 15 30.09 1019 10 16.0934 0.01 0.254
6:52 am 06:52 Cloudy with Light Rain 75 23.9 72 22.2 90 90 NNW 9 15 30.09 1019 6 9.65604 0.02 0.508
6:55 am 06:55 Cloudy with Light Rain 75 23.9 72 22.2 90 90 NNW 8 13 30.09 1019 6 9.65604 0.001 0.001
7:09 am 07:09 Cloudy with Heavy Rain 75 23.9 73 22.8 94 94 NW 13 20 30.1 1019 2.5 4.02335 0.01 0.254
7:17 am 07:17 Cloudy with Heavy Rain 74 23.3 72 22.2 94 94 NNW 12 19 30.1 1019 2.5 4.02335 0.21 5.334
7:22 am 07:22 Cloudy with Heavy Rain 73 22.8 71 21.7 94 94 NNW 7 11 30.09 1019 4 6.43736 0.3 7.62
7:35 am 07:35 Cloudy with Light Rain 74 23.3 71 21.7 91 91 NNW 6 9 30.09 1019 6 9.65604 0.34 8.636
7:52 am 07:52 Cloudy with Light Rain 74 23.3 72 22.2 94 94 N 5 7 30.09 1019 10 16.0934 0.35 8.89
8:52 am 08:52 Cloudy 77 25 72 22.2 85 85 Calm 30.09 1019 10 16.0934 0.001 0.001
9:52 am 09:52 Cloudy 80 26.7 73 22.8 79 79 Calm 30.1 1019 10 16.0934 0 0
10:52 am 10:52 Cloudy 79 26.1 72 22.2 79 79 S 3 6 30.11 1020 10 16.0934 0 0
11:52 am 11:52 Cloudy 81 27.2 73 22.8 77 77 SSE 5 7 30.11 1020 10 16.0934 0 0
12:52 pm 12:52 Cloudy 82 27.8 73 22.8 74 74 SE 5 7 30.1 1019 10 16.0934 0 0
1:52 pm 13:52 Cloudy 83 28.3 75 23.9 77 77 SSE 6 9 30.09 1019 10 16.0934 0.01 0.254
2:52 pm 14:52 Cloudy 84 28.9 73 22.8 70 70 SE 5 7 30.06 1018 10 16.0934 0 0
3:52 pm 15:52 Cloudy with Nearby Thunderstorms 83 28.3 74 23.3 74 74 S 5 7 30.05 1018 10 16.0934 0 0
4:23 pm 16:23 Cloudy 83 28.3 75 23.9 77 77 Calm 30.04 1017 10 16.0934 0 0
4:52 pm 16:52 Cloudy 82 27.8 74 23.3 77 77 S 7 11 30.04 1017 10 16.0934 0 0
5:52 pm 17:52 Cloudy 83 28.3 73 22.8 72 72 W 6 9 30.04 1017 10 16.0934 0 0
6:52 pm 18:52 Cloudy 84 28.9 73 22.8 70 70 Calm 30.05 1018 10 16.0934 0 0
7:52 pm 19:52 Cloudy 84 28.9 72 22.2 67 67 NE 3 6 30.06 1018 10 16.0934 0 0
8:52 pm 20:52 Mostly Cloudy 82 27.8 71 21.7 69 69 E 12 19 30.06 1018 10 16.0934 0 0
9:52 pm 21:52 Mostly Cloudy 77 25 72 22.2 85 85 NE 6 9 30.07 1018 10 16.0934 0 0
10:52 pm 22:52 Partly Cloudy 79 26.1 72 22.2 79 79 Calm 30.09 1019 10 16.0934 0 0
11:52 pm 23:52 Mostly Clear 77 25 72 22.2 85 85 E 5 7 30.09 1019 10 16.0934 0 0

Powered by AerisWeather